Tracking 18844 objects as of 21-Nov-2017
HD Live streaming from Space Station
objects crossing your sky now

COSMOS 1782

Track COSMOS 1782 now!
10-day predictions
COSMOS 1782 is classified as:


NORAD ID: 16986
Int'l Code: 1986-074A
Perigee: 545.0 km
Apogee: 561.7 km
Inclination: 82.5 °
Period: 95.6 minutes
Semi major axis: 6924 km
RCS: 9.471 m2 (large)
Launch date: September 30, 1986
Source: Commonwealth of Independent States (former USSR) (CIS)
Launch site: PLESETSK MISSILE AND SPACE COMPLEX (PKMTR)
aabbcc
Your satellite tracking list
Your tracking list is empty




NASA's NSSDC Master Catalog

Two Line Element Set (TLE):
1 16986U 86074A   17324.58725794 +.00000138 +00000-0 +73096-5 0  9991
2 16986 082.5060 329.0687 0012021 161.1258 199.0418 15.06730184673225
Source of the keplerian elements: AFSPC